TimeCDT,TemperatureF,Dew PointF,Humidity,Sea Level PressureIn,VisibilityMPH,Wind Direction,Wind SpeedMPH,Gust SpeedMPH,PrecipitationIn,Events,Conditions,WindDirDegrees,DateUTC
12:51 AM,51.8,50.0,94,30.18,10.0,Calm,Calm,-,N/A,,Overcast,0,2012-10-12 05:51:00
12:53 AM,52.0,50.0,93,30.18,10.0,Calm,Calm,-,N/A,,Overcast,0,2012-10-12 05:53:00
1:39 AM,51.8,51.8,100,30.20,10.0,Calm,Calm,-,N/A,,Overcast,0,2012-10-12 06:39:00
1:53 AM,53.1,51.1,93,30.20,10.0,Calm,Calm,-,N/A,,Overcast,0,2012-10-12 06:53:00
2:53 AM,51.8,51.8,100,30.20,10.0,Calm,Calm,-,N/A,,Overcast,0,2012-10-12 07:53:00
3:53 AM,52.0,51.1,97,30.20,10.0,Calm,Calm,-,N/A,,Overcast,0,2012-10-12 08:53:00
4:53 AM,51.8,51.8,100,30.21,10.0,NNE,4.6,-,N/A,,Overcast,20,2012-10-12 09:53:00
5:30 AM,53.6,50.0,88,30.22,10.0,North,5.8,-,N/A,,Overcast,10,2012-10-12 10:30:00
5:37 AM,53.6,50.0,88,30.23,10.0,North,4.6,-,N/A,,Overcast,10,2012-10-12 10:37:00
5:53 AM,52.0,50.0,93,30.22,10.0,NNE,10.4,-,N/A,,Overcast,30,2012-10-12 10:53:00
6:11 AM,51.8,50.0,94,30.22,9.0,NNE,9.2,-,N/A,,Overcast,30,2012-10-12 11:11:00
6:24 AM,51.8,50.0,94,30.24,9.0,NNE,6.9,-,N/A,,Overcast,20,2012-10-12 11:24:00
6:53 AM,52.0,48.9,89,30.25,10.0,NE,8.1,-,N/A,,Overcast,40,2012-10-12 11:53:00
7:06 AM,51.8,48.2,88,30.23,10.0,NE,11.5,-,N/A,,Overcast,40,2012-10-12 12:06:00
7:53 AM,50.0,46.0,86,30.27,10.0,NE,11.5,-,N/A,,Mostly Cloudy,50,2012-10-12 12:53:00
8:53 AM,50.0,43.0,77,30.30,10.0,ENE,11.5,-,N/A,,Overcast,70,2012-10-12 13:53:00
9:53 AM,50.0,42.1,74,30.31,10.0,ENE,12.7,-,N/A,,Overcast,60,2012-10-12 14:53:00
10:10 AM,51.8,42.8,71,30.31,10.0,ENE,12.7,-,N/A,,Mostly Cloudy,60,2012-10-12 15:10:00
10:28 AM,51.8,42.8,71,30.31,10.0,East,12.7,-,N/A,,Mostly Cloudy,80,2012-10-12 15:28:00
10:53 AM,51.8,42.8,71,30.32,10.0,East,10.4,-,N/A,,Mostly Cloudy,100,2012-10-12 15:53:00
11:05 AM,53.6,44.6,72,30.32,10.0,NE,12.7,-,N/A,,Scattered Clouds,50,2012-10-12 16:05:00
11:13 AM,53.6,44.6,72,30.32,10.0,East,11.5,-,N/A,,Mostly Cloudy,80,2012-10-12 16:13:00
11:53 AM,55.0,45.0,69,30.32,10.0,East,10.4,-,N/A,,Overcast,80,2012-10-12 16:53:00
12:53 PM,57.0,46.0,67,30.30,10.0,East,6.9,-,N/A,,Overcast,80,2012-10-12 17:53:00
1:53 PM,57.2,48.2,72,30.28,10.0,East,6.9,-,N/A,,Overcast,100,2012-10-12 18:53:00
2:53 PM,57.9,48.0,70,30.25,10.0,ESE,10.4,-,N/A,,Mostly Cloudy,110,2012-10-12 19:53:00
3:08 PM,59.0,48.2,67,30.25,10.0,East,10.4,-,N/A,,Mostly Cloudy,90,2012-10-12 20:08:00
3:53 PM,59.0,48.9,69,30.24,10.0,ESE,9.2,-,N/A,,Clear,110,2012-10-12 20:53:00
4:53 PM,59.0,48.9,69,30.22,10.0,SE,9.2,-,N/A,,Clear,130,2012-10-12 21:53:00
5:53 PM,57.9,50.0,75,30.22,10.0,SE,10.4,-,N/A,,Clear,130,2012-10-12 22:53:00
6:53 PM,55.0,50.0,83,30.21,10.0,East,6.9,-,N/A,,Clear,100,2012-10-12 23:53:00
7:53 PM,55.0,50.0,83,30.20,10.0,East,9.2,-,N/A,,Clear,100,2012-10-13 00:53:00
8:53 PM,53.6,50.0,88,30.20,10.0,SE,9.2,-,N/A,,Clear,130,2012-10-13 01:53:00
9:15 PM,53.6,50.0,88,30.19,10.0,SE,8.1,-,N/A,,Mostly Cloudy,130,2012-10-13 02:15:00
9:25 PM,53.6,51.8,94,30.19,10.0,SE,6.9,-,N/A,,Overcast,140,2012-10-13 02:25:00
9:53 PM,55.4,51.8,88,30.20,10.0,SSE,9.2,-,N/A,,Overcast,160,2012-10-13 02:53:00
10:53 PM,55.9,54.0,93,30.21,8.0,South,11.5,-,N/A,,Overcast,180,2012-10-13 03:53:00
11:53 PM,55.9,54.0,93,30.19,8.0,SSE,6.9,-,N/A,,Overcast,160,2012-10-13 04:53:00